Temperature
18 18 18 18 17 17 17 17 17 17 17 17 17 17 17 17 17 17 17 17 17 17 17 17 17 17 17 17 17 17 17 17 16 16 16 16 16 16 16 16 16 16 16
18 18 18 18 17 17 17 17 17 17 17 17 17 17 17 17 17 17 17 17 17 17 17 17 17 17 17 17 17 16 16 16 16 16 16 16 16 16 16 16 16 16 16
18 18 18 18 18 17 17 17 17 17 17 17 17 17 17 17 17 17 17 17 17 17 17 17 17 17 17 16 16 16 16 16 16 16 16 16 16 16 16 16 16 16 16
18 18 18 18 18 18 17 17 17 17 17 17 17 17 17 17 17 17 17 17 17 17 17 17 17 17 16 16 16 16 16 16 16 16 16 16 16 16 16 16 16 16 16
18 18 18 18 18 18 17 17 17 17 17 17 17 17 17 17 17 17 17 17 17 17 17 17 17 17 16 16 16 16 16 16 16 16 16 16 16 16 16 16 16 15 15
18 18 18 18 17 17 17 17 17 17 17 17 17 17 17 17 17 17 17 17 17 17 17 17 17 17 17 16 16 16 16 16 16 16 16 16 16 16 16 16 15 15 15
18 18 18 17 17 17 17 17 17 17 17 17 17 17 17 17 17 17 17 17 17 17 17 17 17 17 17 16 16 16 16 16 16 16 16 16 16 16 16 15 15 15 15
18 18 18 17 17 17 17 17 17 17 17 17 17 17 16 16 17 17 17 17 17 17 17 17 16 16 16 16 16 16 16 16 16 16 16 16 16 16 15 15 15 15 15
18 18 18 17 17 17 17 17 17 17 17 17 17 17 16 16 16 16 16 16 16 16 16 16 16 16 16 16 16 16 16 16 16 16 16 16 16 16 15 15 15 15 15
18 18 17 17 17 17 17 17 17 17 17 17 17 17 16 16 16 16 16 16 16 16 16 16 16 16 16 16 16 16 16 16 16 16 16 16 16 15 15 15 15 15 15
18 18 17 17 17 17 17 17 17 17 17 17 17 17 16 16 16 16 16 16 16 16 16 16 16 16 16 16 16 16 16 16 16 15 15 15 15 15 15 15 15 15 15
18 18 18 17 17 17 17 17 17 17 17 17 17 16 16 16 16 16 16 16 16 16 16 15 15 15 16 16 15 15 15 15 15 15 15 15 15 15 15 15 15 15 14
18 18 18 17 17 17 17 17 17 17 17 17 17 16 16 16 16 16 16 16 15 15 15 15 15 15 15 15 15 15 15 15 15 15 15 15 15 15 15 15 14 14 14
18 18 18 17 17 17 17 17 17 17 17 17 17 16 16 16 16 16 16 15 15 15 15 15 15 15 15 15 15 15 15 15 15 15 15 15 15 14 14 14 14 14 14
18 18 18 18 17 17 17 17 17 17 17 17 16 16 16 16 16 16 16 15 15 15 15 15 15 15 15 15 15 15 15 14 14 14 14 14 14 14 14 14 14 14 14
18 18 18 18 17 17 17 17 17 17 17 17 16 16 16 16 16 16 16 15 15 15 14 14 14 14 14 14 14 14 14 14 14 14 14 14 14 14 14 14 14 14 13
18 18 18 18 18 17 17 17 17 17 17 17 16 16 16 16 16 16 15 15 15 15 15 14 14 14 14 14 14 14 14 14 14 13 13 13 13 13 13 13 13 13 13
18 18 18 18 18 17 17 17 17 17 17 17 16 16 16 16 16 16 15 15 15 15 15 14 14 14 14 14 13 13 13 13 13 13 13 13 13 13 13 13 13 13 12
18 17 17 17 17 17 17 17 17 17 17 17 16 16 16 16 16 15 15 15 15 15 14 14 14 14 14 13 13 13 13 13 13 13 13 12 12 12 12 12 12 12 12
17 17 17 17 17 17 17 17 17 17 17 17 16 16 16 16 15 15 15 15 15 15 14 14 13 13 13 13 13 13 13 13 13 12 12 12 12 12 12 12 12 12 12
17 17 17 17 17 17 17 17 17 16 16 16 16 16 16 16 15 15 15 15 15 14 14 14 13 13 13 13 13 12 12 12 12 12 12 12 12 12 12 12 12 11 11
17 17 17 17 17 17 16 16 16 16 16 16 16 16 15 15 15 15 15 14 14 14 14 13 13 13 13 13 12 12 12 12 12 12 12 12 12 12 12 12 11 11 11
17 17 17 17 17 16 16 16 16 15 15 15 15 15 15 15 15 14 14 14 14 14 13 13 13 13 13 13 12 12 12 12 12 12 12 12 12 11 11 11 11 11 11
17 17 17 16 16 16 16 16 16 15 15 15 15 15 15 14 14 14 14 14 14 13 13 13 13 13 12 12 12 12 12 12 12 11 11 11 11 11 11 11 11 11 11
17 16 16 16 16 16 16 16 15 15 15 15 14 14 14 14 14 14 14 14 13 13 13 13 13 12 12 12 12 12 12 11 11 11 11 11 11 11 11 11 10 10 10
16 16 16 16 16 16 16 15 15 15 14 14 14 14 14 14 14 13 13 13 13 13 13 12 12 12 12 12 12 12 11 11 11 11 11 10 10 10 10 10 10 10 10
Wind_Speed
2 1 1 1 1 1 2 2 2 2 1 1 2 3 4 4 5 5 6 8 9 10 10 11 11 12 12 12 11 11 11 11 11 11 11 10 10 9 9 8 8 8 8
3 2 1 1 1 2 2 2 2 1 1 1 1 2 3 4 5 5 6 7 9 10 11 11 12 12 12 13 12 12 12 12 11 11 11 11 11 11 10 10 9 9 9
5 4 2 2 2 2 2 2 1 1 1 1 1 1 2 3 4 5 5 5 7 9 11 11 12 12 13 13 13 13 13 13 13 12 12 12 12 12 11 11 11 11 11
6 5 2 2 3 2 2 2 2 1 1 1 1 1 1 2 3 4 4 4 5 6 8 11 12 13 13 14 14 14 14 14 14 14 14 14 14 14 14 13 13 13 13
6 5 3 3 3 2 2 2 2 2 1 1 1 0 0 1 2 3 3 4 5 5 6 8 10 12 13 13 13 14 14 15 15 15 15 15 15 14 14 14 14 14 14
6 6 4 3 3 2 1 2 2 1 1 1 1 1 1 0 0 1 2 3 4 4 5 6 6 7 9 10 11 12 13 13 14 14 14 15 15 15 15 15 14 14 14
6 5 3 2 3 3 2 3 2 2 1 2 2 1 2 1 1 0 0 0 1 2 3 3 4 5 5 7 8 9 10 11 12 13 13 14 14 15 15 15 15 15 15
5 5 3 3 3 3 2 3 3 2 1 2 2 1 1 2 2 1 0 0 1 0 1 1 2 3 4 4 5 7 8 9 11 12 12 12 13 13 14 14 15 16 16
4 4 4 3 3 3 3 3 4 4 3 2 1 2 2 2 1 1 1 1 1 0 1 1 0 1 2 3 4 5 5 6 7 8 8 8 9 10 11 13 14 14 14
3 4 4 4 3 3 3 3 3 3 3 2 1 1 1 2 2 1 1 1 1 1 1 0 0 1 1 2 3 4 4 4 4 5 5 6 7 8 9 10 11 12 12
2 3 4 3 3 3 3 3 3 3 3 3 3 2 1 1 1 2 1 1 1 1 1 1 1 1 2 2 3 3 3 4 4 4 5 5 6 6 7 7 8 8 9
2 2 3 3 3 3 4 4 4 4 3 3 2 2 2 2 2 2 2 2 1 1 1 1 1 1 2 2 2 2 3 3 3 3 4 5 5 5 5 5 6 7 7
2 3 3 3 3 4 4 4 4 4 4 4 4 3 3 3 2 2 2 1 1 1 1 1 1 2 2 2 2 2 2 3 3 2 2 3 4 4 4 4 4 4 5
3 3 4 4 4 4 4 4 3 4 4 4 5 4 3 3 3 3 3 3 1 1 1 2 1 1 2 2 2 2 1 1 2 2 2 3 3 3 2 2 2 2 3
3 3 3 3 4 4 4 4 3 4 4 4 4 4 3 3 3 3 3 3 3 2 3 2 1 1 1 1 1 1 1 1 1 1 2 2 2 2 2 2 1 1 1
3 3 3 3 3 4 4 4 4 4 4 4 3 4 3 3 3 3 3 3 3 3 3 2 2 2 1 1 1 1 1 1 1 1 1 1 2 2 2 2 2 2 2
4 4 4 3 3 3 4 4 4 5 5 4 4 4 4 4 3 3 3 3 3 3 4 3 2 1 1 1 1 0 0 1 0 1 1 1 2 2 2 2 3 3 3
4 5 4 4 4 4 4 5 5 5 6 5 5 5 5 4 4 3 3 3 3 3 3 4 2 2 2 2 1 1 0 0 1 1 1 2 2 2 3 3 3 3 3
5 5 5 5 5 4 4 5 5 5 6 6 6 6 5 5 4 3 3 3 3 3 3 3 2 1 1 1 1 1 1 1 1 1 1 2 2 2 2 3 3 3 3
5 6 5 5 5 5 5 5 5 5 5 5 5 5 5 5 5 5 4 4 4 3 3 3 2 1 1 1 1 1 1 1 1 1 1 1 2 2 2 2 3 4 4
5 5 5 5 5 5 5 5 5 5 5 4 4 4 5 5 6 5 4 4 5 4 3 3 3 2 2 2 2 2 2 2 2 1 1 1 1 1 1 2 3 4 4
4 4 5 5 5 5 6 7 5 5 5 5 4 4 3 4 5 6 6 6 6 5 5 4 3 4 4 4 3 2 2 1 2 1 2 2 1 2 2 3 4 4 5
4 4 5 5 5 5 6 6 6 4 4 4 5 4 3 3 4 4 5 6 6 6 7 5 5 5 5 5 4 4 3 3 3 1 2 2 1 2 2 3 5 6 6
4 4 5 5 5 5 6 5 6 4 4 4 5 5 5 4 4 5 4 4 4 4 5 5 5 5 4 4 5 5 4 3 1 1 2 2 2 2 2 3 4 5 6
4 4 4 5 5 5 6 7 6 4 4 5 4 5 6 6 6 6 5 4 3 3 3 4 4 4 4 4 5 3 3 2 2 1 2 2 1 1 2 2 3 4 6
4 4 4 4 5 4 5 7 7 4 5 4 3 4 5 5 5 7 6 5 5 4 2 2 2 1 1 2 5 5 4 4 2 2 2 2 1 1 1 1 1 2 4
Wind_Direction
143 146 164 174 184 178 154 138 130 132 146 156 159 170 182 185 189 194 200 203 204 203 205 206 204 203 204 204 204 206 206 207 205 206 208 208 204 203 203 206 208 209 207
174 166 174 191 208 207 194 177 159 151 175 170 178 187 198 195 196 201 212 217 216 211 213 214 213 213 214 215 215 214 213 211 209 209 210 211 210 211 212 214 215 216 214
187 180 187 203 214 197 182 163 143 138 162 150 171 183 194 203 199 204 210 218 223 220 218 221 220 219 221 223 223 222 221 217 216 217 216 216 217 217 221 220 220 222 221
194 187 193 217 219 184 174 157 144 132 150 146 175 236 210 210 219 213 213 220 224 227 229 230 230 230 230 229 228 228 227 224 222 223 222 222 222 222 224 224 224 226 226
201 192 200 222 207 174 170 175 147 150 160 152 176 233 246 232 234 229 224 227 229 233 236 240 242 242 240 239 235 233 231 229 228 228 228 227 226 225 225 226 227 229 229
203 194 198 204 183 158 160 147 133 128 155 144 103 44 28 357 238 240 239 234 232 232 233 237 247 254 251 250 249 245 240 237 233 232 233 233 231 228 227 227 229 231 232
197 191 188 173 173 175 179 160 143 144 152 121 96 37 15 26 17 275 211 235 256 247 237 235 243 247 250 254 256 256 250 244 239 235 235 236 236 234 231 231 231 232 233
197 196 189 184 178 171 165 167 160 160 164 154 143 125 6 347 351 356 44 21 302 267 260 243 230 236 241 247 256 258 259 255 251 245 241 238 237 237 237 238 237 237 238
208 202 198 191 180 177 186 188 179 175 181 184 162 149 159 224 308 338 357 18 21 35 290 260 210 237 237 244 259 259 259 263 261 253 247 244 239 236 238 235 235 237 238
205 205 205 200 190 184 192 200 184 181 170 188 193 184 165 158 178 285 333 1 16 1 308 308 264 245 251 254 260 261 259 257 256 254 250 247 244 239 239 235 236 237 238
214 212 206 203 202 198 197 188 176 182 183 185 181 167 156 145 180 195 254 311 352 318 280 248 235 243 249 254 257 265 252 254 257 257 255 252 249 246 243 239 237 236 239
232 224 209 205 205 204 202 198 189 186 191 189 184 176 172 175 190 191 223 243 267 290 296 270 257 254 256 262 262 266 251 256 267 269 262 258 250 246 244 238 238 240 244
226 228 214 207 207 206 200 193 191 193 192 195 199 199 197 204 180 173 182 212 245 279 291 300 258 250 259 258 266 258 254 256 261 260 259 257 252 244 238 232 235 237 246
227 219 209 213 213 206 199 188 192 200 195 203 209 199 199 207 188 183 181 177 217 273 280 270 280 254 260 251 260 239 263 259 246 245 242 243 240 225 216 215 227 241 242
229 222 211 216 219 211 202 188 196 207 196 203 207 200 201 207 196 198 190 186 187 227 258 259 261 282 261 252 269 247 244 247 229 231 230 225 210 193 191 183 166 166 133
216 211 212 215 220 217 205 198 201 202 194 205 202 196 206 208 199 197 195 196 198 204 236 244 243 283 281 266 272 231 227 216 220 222 221 200 182 179 172 154 146 134 110
213 220 219 210 212 210 204 201 205 195 195 202 205 202 212 202 194 197 190 191 200 197 225 254 244 261 240 264 316 299 225 202 271 239 213 185 167 162 159 154 145 133 117
220 220 215 216 215 207 200 202 211 203 197 200 203 198 210 200 197 197 193 199 204 204 208 238 247 238 246 253 265 265 271 258 279 302 239 213 190 173 168 165 158 148 137
220 220 214 218 218 209 202 205 205 205 203 203 200 199 204 195 201 202 200 206 208 205 206 217 241 239 264 264 286 291 288 308 267 286 268 241 204 180 169 168 166 163 163
218 219 218 220 215 208 204 203 198 204 204 204 198 197 199 197 202 201 205 209 202 198 198 209 233 239 251 261 236 261 279 284 269 280 274 242 212 191 198 199 192 187 182
221 220 217 218 215 210 208 198 202 205 199 203 201 199 199 198 200 201 202 203 197 199 199 209 223 230 235 231 237 238 252 267 262 252 250 259 234 230 235 234 218 206 193
226 220 219 219 222 227 206 196 197 206 200 200 204 206 204 208 212 212 209 202 196 198 203 209 222 231 238 234 225 221 227 241 251 228 226 251 219 237 243 231 224 206 199
231 228 226 221 226 226 207 197 192 199 204 211 212 211 211 207 214 223 215 209 210 209 201 202 217 230 234 224 213 214 214 223 243 233 210 239 228 242 245 242 233 216 207
236 235 230 225 222 228 211 198 188 196 204 212 215 215 213 216 214 207 201 203 212 217 211 210 220 233 235 224 211 211 212 218 260 213 198 223 233 247 256 244 239 223 216
232 235 227 219 220 225 205 195 186 195 205 216 221 219 216 220 217 197 192 201 216 231 212 204 218 233 229 209 188 174 174 193 242 240 200 206 227 253 256 249 239 231 225
234 223 225 222 218 214 194 189 187 192 202 209 216 224 220 216 212 194 197 198 212 226 215 203 218 242 220 187 176 190 194 197 208 224 193 193 202 205 248 250 241 237 230
Height
1548 1549 1550 1551 1552 1553 1555 1556 1557 1558 1560 1561 1562 1563 1564 1564 1565 1566 1566 1567 1568 1568 1569 1569 1570 1571 1572 1573 1574 1575 1575 1576 1577 1578 1579 1580 1581 1581 1582 1583 1584 1584 1585
1550 1551 1552 1553 1554 1555 1556 1557 1558 1559 1560 1561 1562 1563 1564 1564 1565 1566 1566 1567 1567 1568 1568 1569 1570 1570 1571 1572 1573 1574 1574 1575 1576 1577 1578 1578 1579 1580 1581 1581 1582 1583 1583
1551 1552 1553 1554 1555 1556 1557 1557 1558 1559 1560 1561 1562 1563 1563 1564 1565 1565 1565 1566 1566 1567 1567 1568 1569 1569 1570 1571 1571 1572 1573 1574 1574 1575 1576 1577 1577 1578 1579 1579 1580 1581 1581
1551 1552 1553 1554 1555 1556 1557 1557 1558 1559 1560 1561 1561 1562 1563 1563 1564 1564 1564 1565 1565 1566 1566 1567 1567 1568 1568 1569 1569 1570 1571 1572 1572 1573 1574 1574 1575 1576 1576 1577 1578 1579 1579
1552 1552 1553 1554 1555 1556 1557 1557 1558 1559 1559 1560 1560 1561 1562 1562 1563 1563 1563 1563 1564 1564 1564 1565 1566 1566 1566 1567 1567 1568 1569 1569 1570 1570 1571 1572 1572 1573 1574 1575 1575 1576 1577
1551 1552 1553 1554 1555 1556 1556 1557 1557 1558 1558 1559 1559 1560 1560 1560 1561 1561 1561 1562 1562 1562 1563 1563 1563 1564 1564 1565 1565 1565 1566 1567 1567 1567 1568 1569 1569 1570 1571 1571 1572 1573 1573
1551 1551 1552 1553 1554 1555 1555 1556 1556 1557 1557 1558 1558 1558 1559 1559 1559 1559 1559 1560 1560 1560 1561 1561 1561 1562 1562 1563 1563 1563 1563 1564 1564 1565 1565 1566 1566 1567 1567 1568 1569 1569 1570
1549 1550 1551 1552 1552 1553 1554 1555 1555 1556 1556 1556 1557 1557 1557 1558 1557 1558 1558 1558 1558 1558 1558 1559 1559 1559 1560 1560 1560 1560 1560 1561 1561 1561 1562 1562 1563 1563 1563 1564 1564 1565 1566
1548 1549 1549 1550 1551 1552 1552 1553 1554 1554 1554 1555 1555 1556 1556 1556 1556 1556 1556 1556 1556 1556 1556 1556 1557 1557 1557 1557 1557 1557 1557 1558 1558 1558 1558 1558 1559 1559 1560 1560 1560 1561 1562
1546 1547 1547 1548 1549 1549 1550 1551 1551 1552 1552 1553 1553 1554 1555 1555 1555 1555 1555 1555 1555 1555 1555 1555 1555 1555 1555 1555 1555 1555 1555 1555 1555 1555 1555 1555 1556 1556 1556 1555 1556 1556 1557
1545 1545 1546 1546 1547 1547 1548 1549 1549 1550 1550 1551 1551 1552 1552 1553 1553 1553 1553 1553 1553 1553 1553 1553 1553 1553 1553 1553 1552 1552 1552 1552 1552 1552 1552 1552 1552 1552 1552 1552 1552 1552 1552
1543 1543 1544 1545 1545 1545 1546 1547 1547 1548 1548 1549 1549 1550 1550 1551 1551 1551 1551 1551 1551 1551 1551 1551 1551 1551 1551 1550 1550 1550 1549 1549 1549 1549 1549 1548 1548 1548 1548 1548 1548 1548 1548
1541 1542 1542 1543 1543 1544 1544 1544 1545 1546 1546 1546 1547 1548 1548 1549 1549 1549 1550 1549 1549 1549 1549 1549 1549 1548 1548 1548 1547 1547 1547 1546 1546 1546 1545 1545 1545 1544 1544 1544 1545 1545 1545
1539 1540 1540 1540 1541 1541 1542 1542 1542 1543 1544 1544 1544 1545 1546 1546 1547 1547 1548 1548 1547 1547 1547 1547 1547 1546 1546 1545 1545 1544 1544 1543 1543 1542 1542 1542 1542 1541 1541 1541 1541 1541 1541
1537 1537 1538 1538 1538 1538 1539 1539 1540 1540 1541 1542 1542 1542 1543 1544 1544 1545 1545 1545 1546 1545 1544 1544 1544 1544 1543 1543 1542 1542 1541 1540 1540 1539 1539 1539 1539 1538 1538 1538 1538 1538 1538
1534 1534 1535 1535 1535 1536 1536 1537 1537 1538 1538 1539 1540 1540 1540 1541 1542 1542 1542 1543 1543 1543 1542 1541 1542 1542 1541 1541 1540 1539 1538 1538 1537 1537 1536 1536 1536 1535 1535 1535 1535 1535 1535
1531 1532 1532 1532 1532 1533 1533 1534 1534 1535 1535 1536 1537 1537 1538 1538 1539 1539 1539 1539 1540 1540 1539 1539 1539 1539 1539 1538 1537 1537 1536 1535 1534 1534 1533 1533 1533 1533 1533 1532 1532 1532 1532
1527 1528 1529 1529 1529 1530 1530 1531 1531 1532 1532 1533 1534 1534 1535 1535 1536 1536 1537 1537 1537 1537 1536 1535 1536 1536 1536 1535 1534 1534 1533 1532 1532 1531 1531 1530 1530 1530 1530 1530 1530 1530 1530
1523 1524 1525 1526 1526 1526 1527 1528 1528 1529 1529 1530 1531 1531 1532 1532 1533 1533 1533 1534 1533 1533 1533 1533 1532 1533 1532 1532 1531 1531 1530 1529 1529 1528 1528 1528 1528 1528 1528 1527 1527 1527 1527
1519 1519 1520 1521 1522 1523 1524 1525 1525 1526 1526 1527 1527 1528 1529 1529 1529 1530 1530 1530 1530 1530 1529 1529 1529 1529 1529 1528 1528 1528 1527 1526 1526 1525 1525 1525 1525 1525 1525 1525 1525 1525 1525
1515 1515 1515 1516 1517 1518 1520 1521 1522 1523 1523 1524 1524 1524 1525 1525 1526 1526 1526 1526 1526 1526 1526 1525 1525 1525 1525 1525 1524 1524 1524 1523 1523 1523 1522 1522 1522 1522 1522 1522 1522 1522 1522
1511 1511 1512 1512 1513 1514 1516 1517 1519 1519 1520 1520 1520 1521 1521 1522 1522 1522 1522 1522 1523 1523 1522 1522 1522 1521 1521 1521 1521 1521 1520 1520 1519 1520 1519 1519 1519 1519 1520 1520 1520 1520 1519
1507 1507 1508 1508 1509 1510 1511 1513 1514 1515 1516 1517 1517 1517 1517 1518 1518 1518 1519 1519 1519 1518 1519 1519 1518 1518 1518 1517 1517 1516 1516 1516 1516 1517 1517 1516 1516 1516 1517 1517 1517 1517 1517
1504 1504 1504 1505 1505 1506 1507 1508 1509 1510 1511 1512 1513 1513 1514 1514 1515 1515 1515 1515 1515 1515 1514 1514 1514 1514 1514 1514 1513 1513 1513 1513 1513 1513 1513 1513 1513 1513 1513 1514 1514 1515 1514
1499 1499 1500 1500 1501 1502 1503 1504 1505 1506 1506 1507 1509 1509 1510 1510 1511 1511 1511 1510 1510 1510 1510 1510 1510 1510 1510 1510 1510 1510 1509 1509 1509 1509 1510 1510 1510 1510 1510 1510 1511 1511 1511
1495 1495 1496 1496 1497 1498 1499 1500 1501 1501 1502 1502 1503 1504 1505 1506 1506 1506 1507 1506 1506 1507 1507 1506 1507 1506 1506 1506 1506 1506 1506 1506 1506 1506 1506 1507 1507 1507 1507 1507 1507 1508 1508